Regional Weather Roundup
Issued by NWS

Home | Current Version | Previous Version | Graphics & Text | Print | Product List | Glossary On
Versions: 1 2 3 4 5 6 7 8 9 10 11 12 13 14 15 16 17 18 19 20 21 22 23 24 25 26 27 28 29 30 31 32 33 34 35 36 37 38 39 40 41 42 43 44 45 46 47 48 49 50
000
ASUS43 KBIS 281301
RWRND

NORTH DAKOTA REGIONAL WEATHER ROUNDUP
NATIONAL WEATHER SERVICE BISMARCK ND
700 AM CST SAT FEB 28 2015

NOTE: "FAIR" INDICATES FEW OR NO CLOUDS BELOW 12,000 FEET WITH NO
SIGNIFICANT WEATHER AND/OR OBSTRUCTIONS TO VISIBILITY.


NDZ001>003-009>011-017-281400-
NORTHWEST NORTH DAKOTA

CITY           SKY/WX    TMP DP  RH WIND       PRES   REMARKS
WILLISTON      PTCLDY     1  -7  68 NW9       30.14R WCI -14
MINOT          CLOUDY    11   4  73 NW3       30.05S
$$

NDZ018>021-031>035-040>046-281400-
SOUTHWEST NORTH DAKOTA

CITY           SKY/WX    TMP DP  RH WIND       PRES   REMARKS
BISMARCK       CLEAR      4  -1  80 S3        30.08S
DICKINSON      CLOUDY    10   5  80 W14       30.01R WCI  -6
GARRISON         N/A     10   4  76 CALM      30.04S
HETTINGER ARPT CLEAR      7   2  80 NW12      30.04R WCI  -8
$$

NDZ004>008-012>016-024-026-027-054-281400-
NORTHEAST NORTH DAKOTA

CITY           SKY/WX    TMP DP  RH WIND       PRES   REMARKS
GRAND FORKS    MOCLDY     4  -3  73 S14       30.22S WCI -14
GRND FRKS AFB  PTCLDY     3  -4  73 S13       30.19F WCI -14
DEVILS LAKE    CLOUDY     9   1  72 S7        30.10S WCI  -3
$$

NDZ022-023-025-028>030-036>039-047>053-281400-
SOUTHEAST NORTH DAKOTA

CITY           SKY/WX    TMP DP  RH WIND       PRES   REMARKS
FARGO          MOCLDY     6  -2  69 S17       30.26F WCI -13
JAMESTOWN      PTCLDY     3  -3  76 S14       30.13F WCI -15
$$




USA.gov is the U.S. government's official web portal to all federal, state and local government web resources and services.